{"data":{"norad_id":63282,"epoch":"2026-09-20T05:43:54.202656Z","epoch_age_seconds":181356,"freshness":"STALE","line1":"1 63282U 25053T   26263.23882179  .00007584  00000+0  28481-3 0  9994","line2":"2 63282  42.9995 223.3568 0002458 255.4136 104.6443 15.27581086 85946","mean_motion":15.27581086,"eccentricity":0.0002458,"inclination_deg":42.9995,"raan_deg":223.3568,"arg_perigee_deg":255.4136,"mean_anomaly_deg":104.6443,"bstar":0.00028481,"rev_number":8594,"period_min":94.266681696791,"perigee_km":481.3593654238,"apogee_km":484.73232290999,"semimajor_km":6861.1828441669,"source":"CELESTRAK","updated_at":"2026-09-21T09:00:34.965541Z"}}